TimeCEST,TemperatureF,Dew PointF,Humidity,Sea Level PressureIn,VisibilityMPH,Wind Direction,Wind SpeedMPH,Gust SpeedMPH,PrecipitationIn,Events,Conditions,WindDirDegrees,DateUTC
12:00 AM,60.8,60.8,100,29.95,6.2,Variable,3.5,-,N/A,,Scattered Clouds,0,2013-08-26 22:00:00
12:30 AM,62.6,62.6,100,29.95,6.2,NE,4.6,-,N/A,,Mostly Cloudy,50,2013-08-26 22:30:00
1:00 AM,60.8,60.8,100,29.95,6.2,ENE,5.8,-,N/A,,Mostly Cloudy,60,2013-08-26 23:00:00
1:30 AM,60.8,59.0,94,29.95,6.2,NE,4.6,-,N/A,,Mostly Cloudy,50,2013-08-26 23:30:00
2:00 AM,60.8,60.8,100,29.95,6.2,Variable,2.3,-,N/A,,Mostly Cloudy,0,2013-08-27 00:00:00
2:30 AM,60.8,59.0,94,29.95,6.2,NE,4.6,-,N/A,,Mostly Cloudy,40,2013-08-27 00:30:00
3:00 AM,59.0,59.0,100,29.95,6.2,Variable,3.5,-,N/A,,Scattered Clouds,0,2013-08-27 01:00:00
3:30 AM,59.0,59.0,100,29.95,6.2,NNW,4.6,-,N/A,,Mostly Cloudy,330,2013-08-27 01:30:00
4:00 AM,60.8,60.8,100,29.95,5.0,North,5.8,-,N/A,,Mostly Cloudy,360,2013-08-27 02:00:00
4:30 AM,60.8,60.8,100,29.95,5.0,Variable,2.3,-,N/A,,Mostly Cloudy,0,2013-08-27 02:30:00
5:00 AM,60.8,60.8,100,29.95,5.0,Calm,Calm,-,N/A,,Mostly Cloudy,0,2013-08-27 03:00:00
5:30 AM,60.8,60.8,100,29.95,5.0,Variable,3.5,-,N/A,,Mostly Cloudy,0,2013-08-27 03:30:00
6:00 AM,60.8,60.8,100,29.95,5.0,Variable,2.3,-,N/A,,Mostly Cloudy,0,2013-08-27 04:00:00
6:30 AM,60.8,60.8,100,29.95,5.0,Variable,2.3,-,N/A,,Mostly Cloudy,0,2013-08-27 04:30:00
7:00 AM,60.8,59.0,94,29.95,5.0,Variable,1.2,-,N/A,,Mostly Cloudy,0,2013-08-27 05:00:00
7:30 AM,60.8,59.0,94,29.95,5.0,Variable,2.3,-,N/A,,Scattered Clouds,0,2013-08-27 05:30:00
8:00 AM,62.6,60.8,94,29.95,5.0,Variable,2.3,-,N/A,,Mostly Cloudy,0,2013-08-27 06:00:00
8:30 AM,62.6,59.0,88,29.95,5.0,East,4.6,-,N/A,,Mostly Cloudy,90,2013-08-27 06:30:00
9:00 AM,64.4,57.2,77,29.95,5.6,East,6.9,-,N/A,,Mostly Cloudy,90,2013-08-27 07:00:00
9:30 AM,64.4,59.0,83,29.95,6.2,ENE,6.9,-,N/A,,Mostly Cloudy,70,2013-08-27 07:30:00
10:00 AM,66.2,57.2,73,29.95,6.2,NE,6.9,-,N/A,,Mostly Cloudy,50,2013-08-27 08:00:00
10:30 AM,66.2,57.2,73,29.95,6.2,East,5.8,-,N/A,,Mostly Cloudy,80,2013-08-27 08:30:00
11:00 AM,66.2,59.0,78,29.95,6.2,ENE,5.8,-,N/A,,Mostly Cloudy,60,2013-08-27 09:00:00
11:30 AM,68.0,57.2,68,29.98,6.2,Variable,3.5,-,N/A,,Overcast,0,2013-08-27 09:30:00
12:00 PM,68.0,57.2,68,29.95,6.2,NNE,6.9,-,N/A,,Mostly Cloudy,30,2013-08-27 10:00:00
12:30 PM,69.8,59.0,68,29.95,6.2,East,6.9,-,N/A,,Mostly Cloudy,80,2013-08-27 10:30:00
1:00 PM,69.8,57.2,64,29.95,6.2,East,4.6,-,N/A,,Scattered Clouds,80,2013-08-27 11:00:00
1:30 PM,71.6,57.2,60,29.95,6.2,ESE,5.8,-,N/A,,Scattered Clouds,110,2013-08-27 11:30:00
2:00 PM,73.4,59.0,61,29.92,6.2,East,5.8,-,N/A,,Mostly Cloudy,80,2013-08-27 12:00:00
2:30 PM,71.6,57.2,60,29.92,6.2,Variable,4.6,-,N/A,,Mostly Cloudy,0,2013-08-27 12:30:00
3:00 PM,71.6,57.2,60,29.92,6.2,Variable,3.5,-,N/A,,Mostly Cloudy,0,2013-08-27 13:00:00
3:30 PM,71.6,57.2,60,29.92,6.2,NE,5.8,-,N/A,,Scattered Clouds,50,2013-08-27 13:30:00
4:00 PM,73.4,57.2,57,29.92,6.2,East,8.1,-,N/A,,Scattered Clouds,80,2013-08-27 14:00:00
4:30 PM,73.4,59.0,61,29.89,6.2,East,6.9,-,N/A,,Partly Cloudy,80,2013-08-27 14:30:00
5:00 PM,73.4,59.0,61,29.89,6.2,East,8.1,-,N/A,,Scattered Clouds,80,2013-08-27 15:00:00
5:30 PM,73.4,57.2,57,29.89,6.2,East,8.1,-,N/A,,Partly Cloudy,100,2013-08-27 15:30:00
6:00 PM,73.4,57.2,57,29.89,6.2,East,5.8,-,N/A,,Partly Cloudy,90,2013-08-27 16:00:00
6:30 PM,71.6,57.2,60,29.89,6.2,East,6.9,-,N/A,,Partly Cloudy,80,2013-08-27 16:30:00
7:00 PM,69.8,59.0,68,29.89,-9999.0,ENE,4.6,-,N/A,,Clear,60,2013-08-27 17:00:00
7:30 PM,68.0,59.0,73,29.89,-9999.0,ENE,4.6,-,N/A,,Clear,60,2013-08-27 17:30:00
8:00 PM,69.8,59.0,68,29.92,6.2,Variable,3.5,-,N/A,,Mostly Cloudy,0,2013-08-27 18:00:00
8:30 PM,69.8,60.8,73,29.92,6.2,NE,5.8,-,N/A,,Mostly Cloudy,50,2013-08-27 18:30:00
9:00 PM,68.0,60.8,78,29.92,-9999.0,NE,5.8,-,N/A,,Clear,50,2013-08-27 19:00:00
9:30 PM,68.0,60.8,78,29.92,-9999.0,NE,4.6,-,N/A,,Clear,50,2013-08-27 19:30:00
10:00 PM,66.2,59.0,78,29.92,-9999.0,ENE,10.4,-,N/A,,Clear,70,2013-08-27 20:00:00
10:30 PM,66.2,59.0,78,29.92,-9999.0,ENE,10.4,-,N/A,,Clear,70,2013-08-27 20:30:00
11:00 PM,66.2,57.2,73,29.92,-9999.0,East,9.2,-,N/A,,Clear,90,2013-08-27 21:00:00
11:30 PM,66.2,57.2,73,29.92,-9999.0,East,9.2,-,N/A,,Clear,80,2013-08-27 21:30:00